Weather History for Bowling Green, KY

Change the Weather History Date:

Monday, June 17, 2013

  Actual Average Record
Temperature  
Mean Temperature 80 °F 76 °F  
Max Temperature 90 °F 87 °F 101 °F (1936)
Min Temperature 69 °F 65 °F 45 °F (1917)
Degree Days  
Heating Degree Days 0 0  
Month to date heating degree days 0 3  
Since 1 June heating degree days 0 3  
Since 1 July heating degree days 3875 4046  
Cooling Degree Days 15 11  
Month to date cooling degree days 159 148  
Year to date cooling degree days 372 301  
Since 1 June cooling degree days 159 148  
Growing Degree Days 30 (Base 50)    
Moisture  
Dew Point 68 °F    
Average Humidity 72    
Maximum Humidity 93    
Minimum Humidity 50    
Precipitation  
Precipitation 0.07 in 0.14 in 1.43 in (1912)
Month to date precipitation 2.10 2.46  
Year to date precipitation 26.63 24.39  
Snow  
Snow 0.00 in 0.00 in 0.00 in ()
Month to date snowfall 0.0 0.0  
Since 1 June snowfall 0.0 0.0  
Since 1 July snowfall 3.8 9.1  
Snow Depth 0.00 in    
Sea Level Pressure  
Sea Level Pressure 29.94 in    
Wind  
Wind Speed 6 mph (South)    
Max Wind Speed 25 mph    
Max Gust Speed 37 mph    
Visibility 10 miles    
Events Rain    
T = Trace of Precipitation, MM = Missing Value Source: NWS Daily Summary

Daily Weather History Graph

Daily Weather History Graph

Search for Another Location

Airport:

Trip Planner

Search our weather history database for the weather conditions in past years. The results will help you decide how hot, cold, wet, or windy it might be!

Date:

Astronomy

Jun. 17, 2013 Rise Set
Actual Time 5:25 AM CDT 8:07 PM CDT
Civil Twilight 4:55 AM CDT 8:38 PM CDT
Nautical Twilight 4:16 AM CDT 9:16 PM CDT
Astronomical Twilight 3:33 AM CDT 10:00 PM CDT
Moon 1:52 PM CDT (6/17) 12:53 AM CDT (6/17)
Length of Visible Light 15h 43m
Length of Day
14h 41m
First Quarter, 60% of the Moon is Illuminated
Jun 17
First Quarter
Jun 23
Full
Jun 29
Last Quarter
Jul 8
New
Jul 15
First Quarter

Hourly Weather History & Observations

Time (CDT) Temp. Heat Index Dew Point Humidity Pressure Visibility Wind Dir Wind Speed Gust Speed Precip Events Conditions
12:53 AM 73.0 °F - 69.1 °F 87% 29.97 in 10.0 mi Calm Calm - N/A   Clear
1:53 AM 73.0 °F - 70.0 °F 90% 29.97 in 10.0 mi SE 3.5 mph - N/A   Clear
2:53 AM 72.0 °F - 69.1 °F 91% 29.96 in 8.0 mi Calm Calm - N/A   Clear
3:53 AM 71.1 °F - 66.9 °F 87% 29.96 in 10.0 mi Calm Calm - N/A   Clear
4:53 AM 70.0 °F - 66.9 °F 90% 29.97 in 10.0 mi Calm Calm - N/A   Clear
5:53 AM 73.0 °F - 69.1 °F 87% 29.97 in 10.0 mi Calm Calm - N/A   Scattered Clouds
6:53 AM 73.9 °F - 68.0 °F 82% 29.98 in 10.0 mi SSW 8.1 mph - N/A   Clear
7:53 AM 77.0 °F - 68.0 °F 74% 29.99 in 10.0 mi SW 5.8 mph - N/A   Clear
8:53 AM 80.1 °F 82.9 °F 69.1 °F 69% 29.98 in 10.0 mi SW 4.6 mph - N/A   Clear
9:53 AM 82.9 °F 87.0 °F 70.0 °F 65% 29.96 in 10.0 mi SSW 3.5 mph - N/A   Clear
10:53 AM 86.0 °F 90.1 °F 69.1 °F 57% 29.96 in 10.0 mi SE 5.8 mph - N/A   Partly Cloudy
11:53 AM 87.1 °F 91.3 °F 69.1 °F 55% 29.96 in 10.0 mi South 9.2 mph - N/A   Mostly Cloudy
12:53 PM 89.1 °F 92.9 °F 68.0 °F 50% 29.94 in 10.0 mi Variable 3.5 mph - N/A   Mostly Cloudy
1:53 PM 89.1 °F 93.7 °F 69.1 °F 52% 29.91 in 10.0 mi SSE 9.2 mph - N/A   Scattered Clouds
2:53 PM 88.0 °F 90.7 °F 66.9 °F 49% 29.87 in 10.0 mi South 5.8 mph - N/A   Clear
3:53 PM 86.0 °F 89.4 °F 68.0 °F 55% 29.88 in 10.0 mi SSE 5.8 mph - N/A   Clear
4:53 PM 84.9 °F 88.2 °F 68.0 °F 57% 29.91 in 10.0 mi SW 26.5 mph 36.8 mph N/A   Scattered Clouds
5:32 PM 73.4 °F - 66.2 °F 78% 29.95 in 10.0 mi WSW 6.9 mph 17.3 mph 0.00 in   Overcast
5:53 PM 73.0 °F - 68.0 °F 84% 29.93 in 10.0 mi West 9.2 mph - 0.00 in Rain Light Rain
6:11 PM 73.4 °F - 68.0 °F 83% 29.91 in 10.0 mi West 6.9 mph - N/A   Mostly Cloudy
6:53 PM 73.0 °F - 66.9 °F 81% 29.89 in 10.0 mi West 3.5 mph - N/A   Clear
7:53 PM 73.0 °F - 66.0 °F 79% 29.93 in 10.0 mi Variable 6.9 mph - N/A   Overcast
8:53 PM 72.0 °F - 66.9 °F 84% 29.94 in 10.0 mi East 3.5 mph - N/A   Mostly Cloudy
9:53 PM 70.0 °F - 64.9 °F 84% 29.94 in 10.0 mi NNE 9.2 mph - 0.01 in Rain Light Rain
10:53 PM 70.0 °F - 64.9 °F 84% 29.93 in 10.0 mi NE 9.2 mph - 0.04 in Rain Light Rain
11:53 PM 69.1 °F - 64.9 °F 87% 29.91 in 10.0 mi NE 6.9 mph - 0.01 in   Overcast